Location: Cella
(44.7333°N, 10.5667°E)
Time: 00:24:18
(UTC+00:00)

COSMOS 1867 COOLANT - Pass Details

Date: 20 September 2021
Orbit: 770 x 802 km, 65.0° (Epoch: 21 October)

Event Time Altitude Azimuth Distance (km) Brightness Sun altitude
Rises 20:33:30 0° 329° (NNW) 3,320 ? -32.7°
Reaches altitude 10° 20:36:17 10° 341° (NNW) 2,387 ? -33.0°
Enters shadow 20:39:27 25° 12° (NNE) 1,588 ? -33.5°
